Weather History for Broomfield, CO

Change the Weather History Date:

Monday, October 21, 2013

  Actual Average Record
Temperature  
Mean Temperature 44 °F -  
Max Temperature 57 °F 60 °F 82 °F (1992)
Min Temperature 32 °F 38 °F 25 °F (1987)
Degree Days  
Heating Degree Days 20    
Moisture  
Dew Point 27 °F    
Average Humidity 64    
Maximum Humidity 100    
Minimum Humidity 25    
Precipitation  
Precipitation 0.00 in - - ()
Sea Level Pressure  
Sea Level Pressure 30.15 in    
Wind  
Wind Speed 5 mph (West)    
Max Wind Speed 17 mph    
Max Gust Speed -    
Visibility 8 miles    
Events Fog    
Averages and records for this station are not official NWS values.
T = Trace of Precipitation, MM = Missing Value Source: NWS Daily Summary

Daily Weather History Graph

Daily Weather History Graph

Search for Another Location

Airport:

Trip Planner

Search our weather history database for the weather conditions in past years. The results will help you decide how hot, cold, wet, or windy it might be!

Date:

Astronomy

Oct. 21, 2013 Rise Set
Actual Time 7:17 AM MDT 6:11 PM MDT
Civil Twilight 6:49 AM MDT 6:39 PM MDT
Nautical Twilight 6:18 AM MDT 7:10 PM MDT
Astronomical Twilight 5:47 AM MDT 7:42 PM MDT
Moon 8:06 PM MDT (10/21) 9:54 AM MDT (10/21)
Length of Visible Light 11h 49m
Length of Day
10h 54m
Waning Gibbous, 92% of the Moon is Illuminated
Oct 21
Waning Gibbous
Oct 26
Last Quarter
Nov 3
New
Nov 9
First Quarter
Nov 17
Full

Hourly Weather History & Observations

Time (MDT) Temp. Windchill Dew Point Humidity Pressure Visibility Wind Dir Wind Speed Gust Speed Precip Events Conditions
12:15 AM 33.8 °F 29.6 °F 32.0 °F 93% 30.13 in 10.0 mi West 4.6 mph - N/A   Clear
12:35 AM 33.8 °F 30.8 °F 30.2 °F 87% 30.13 in 10.0 mi West 3.5 mph - N/A   Clear
12:55 AM 33.8 °F - 30.2 °F 87% 30.13 in 10.0 mi Calm Calm - N/A   Clear
1:15 AM 33.8 °F 30.8 °F 30.2 °F 87% 30.14 in 10.0 mi West 3.5 mph - N/A   Clear
1:35 AM 35.6 °F 32.8 °F 30.2 °F 81% 30.14 in 10.0 mi West 3.5 mph - N/A   Clear
1:55 AM 35.6 °F 31.7 °F 30.2 °F 81% 30.15 in 10.0 mi WNW 4.6 mph - N/A   Scattered Clouds
2:15 AM 37.4 °F 32.8 °F 30.2 °F 75% 30.16 in 10.0 mi NE 5.8 mph - N/A   Mostly Cloudy
2:35 AM 33.8 °F 24.8 °F 30.2 °F 87% 30.16 in 10.0 mi North 12.7 mph - N/A   Scattered Clouds
2:55 AM 32.0 °F 24.2 °F 32.0 °F 100% 30.16 in 1.0 mi North 9.2 mph - N/A   Overcast
3:15 AM 32.0 °F 28.7 °F 30.2 °F 93% 30.17 in 0.5 mi WNW 3.5 mph - N/A Fog Fog
3:34 AM 32.0 °F 28.7 °F 30.2 °F 93% 30.17 in 0.2 mi West 3.5 mph - N/A Fog Fog
3:55 AM 32.0 °F - 32.0 °F 100% 30.16 in 2.0 mi Calm Calm - N/A   Overcast
4:15 AM 32.0 °F - 32.0 °F 100% 30.16 in 5.0 mi Calm Calm - N/A   Scattered Clouds
4:35 AM 32.0 °F 27.5 °F 30.2 °F 93% 30.16 in 4.0 mi WSW 4.6 mph - N/A   Clear
4:55 AM 32.0 °F 28.7 °F 32.0 °F 100% 30.16 in 10.0 mi SW 3.5 mph - N/A   Clear
5:15 AM 32.0 °F 28.7 °F 30.2 °F 93% 30.15 in 10.0 mi SSW 3.5 mph - N/A   Clear
5:34 AM 32.0 °F - 30.2 °F 93% 30.15 in 10.0 mi Calm Calm - N/A   Clear
5:50 AM 32.0 °F 27.5 °F 28.4 °F 87% 30.16 in 20.0 mi ESE 4.6 mph - N/A   Clear
5:55 AM 32.0 °F 27.5 °F 30.2 °F 93% 30.16 in 10.0 mi SE 4.6 mph - N/A   Clear
6:54 AM 32.0 °F - 28.4 °F 87% 30.17 in 60.0 mi Calm Calm - N/A   Partly Cloudy
7:47 AM 32.0 °F 26.4 °F 30.2 °F 93% 30.17 in 60.0 mi West 5.8 mph - N/A Fog Partly Cloudy
8:45 AM 35.6 °F 32.8 °F 30.2 °F 81% 30.19 in 30.0 mi SW 3.5 mph - N/A   Partly Cloudy
10:47 AM 50.0 °F - 21.2 °F 32% 30.18 in 30.0 mi SSE 4.6 mph - N/A   Partly Cloudy
11:47 AM 53.6 °F - 21.2 °F 28% 30.17 in 40.0 mi SSW 3.5 mph - N/A   Partly Cloudy
12:47 PM 55.4 °F - 24.8 °F 31% 30.15 in 50.0 mi Variable 5.8 mph - N/A   Scattered Clouds
1:47 PM 55.4 °F - 19.4 °F 25% 30.14 in 60.0 mi Calm Calm - N/A   Mostly Cloudy
2:17 PM 55.4 °F - 23.0 °F 29% 30.13 in 60.0 mi North 11.5 mph - N/A   Mostly Cloudy
2:47 PM 57.2 °F - 21.2 °F 25% 30.13 in 60.0 mi Calm Calm - N/A   Mostly Cloudy
3:48 PM 57.2 °F - 21.2 °F 25% 30.12 in 70.0 mi Variable 4.6 mph - N/A   Mostly Cloudy
4:49 PM 57.2 °F - 21.2 °F 25% 30.11 in 70.0 mi SSW 5.8 mph - N/A   Scattered Clouds
5:46 PM 55.4 °F - 24.8 °F 31% 30.12 in 70.0 mi West 8.1 mph - N/A   Scattered Clouds
6:49 PM 53.6 °F - 21.2 °F 28% 30.14 in 50.0 mi East 4.6 mph - N/A   Scattered Clouds
7:52 PM 48.2 °F - 24.8 °F 40% 30.15 in 30.0 mi West 3.5 mph - N/A   Scattered Clouds
8:08 PM 48.2 °F - 24.8 °F 40% 30.15 in 30.0 mi West 11.5 mph - N/A   Scattered Clouds
8:46 PM 50.0 °F - 21.2 °F 32% 30.16 in 30.0 mi NW 5.8 mph - N/A   Partly Cloudy
9:47 PM 50.0 °F - 21.2 °F 32% 30.17 in 25.0 mi West 12.7 mph - N/A   Partly Cloudy
11:15 PM 50.0 °F - 21.2 °F 32% 30.16 in 10.0 mi WNW 13.8 mph - N/A   Scattered Clouds
11:35 PM 50.0 °F - 21.2 °F 32% 30.16 in 10.0 mi WNW 16.1 mph - N/A   Clear
11:55 PM 50.0 °F - 21.2 °F 32% 30.16 in 10.0 mi West 17.3 mph - N/A   Clear